COSMOS 2433 (720) 1 32275C 07052A 22182.99979167 .00000000 00000+0 00000+0 0 1827 2 32275 66.0834 4.1875 0001402 174.4195 85.8362 2.13104482 19 COSMOS 2432 (719) 1 32276C 07052B 22182.99979167 .00000000 00000+0 00000+0 0 1828 2 32276 66.0970 4.2886 0008438 341.8388 226.7134 2.13103709 18 COSMOS 2434 (721) 1 32393C 07065A 22182.99979167 .00000000 00000+0 00000+0 0 1822 2 32393 64.3814 240.9306 0001117 135.4335 14.4383 2.13103212 15 COSMOS 2436 (723) 1 32395C 07065C 22182.99979167 .00000000 00000+0 00000+0 0 1824 2 32395 64.3901 240.9879 0014551 352.8644 292.8849 2.13103109 17 COSMOS 2456 (730) 1 36111C 09070A 22182.99979167 .00000000 00000+0 00000+0 0 1822 2 36111 64.3560 120.5558 0005040 311.8520 3.3879 2.13099509 12 COSMOS 2457 (733) 1 36112C 09070B 22182.99979167 .00000000 00000+0 00000+0 0 1823 2 36112 64.3393 120.4314 0003989 178.8038 263.8399 2.13101648 19 COSMOS 2460 (732) 1 36402C 10007C 22182.99979167 .00000000 00000+0 00000+0 0 1827 2 36402 65.9553 2.9736 0002656 92.5971 333.6276 2.13106603 12 COSMOS 2476 (744) 1 37867C 11064A 22182.99979167 .00000000 00000+0 00000+0 0 1827 2 37867 64.6447 121.9176 0022052 239.7625 341.1106 2.13101903 13 COSMOS 2477 (745) 1 37868C 11064B 22182.99979167 .00000000 00000+0 00000+0 0 1828 2 37868 64.6524 121.9825 0019426 240.9243 158.0540 2.13101858 18 COSMOS 2475 (743) 1 37869C 11064C 22182.99979167 .00000000 00000+0 00000+0 0 1829 2 37869 64.6596 121.9908 0023911 257.8713 99.1356 2.13102228 15 COSMOS 2485 (747) 1 39155C 13019A 22182.99979167 .00000000 00000+0 00000+0 0 1821 2 39155 64.8084 122.3490 0022410 235.6272 29.6371 2.13102158 14 COSMOS 2492 (754) 1 39620C 14012A 22182.99979167 .00000000 00000+0 00000+0 0 1822 2 39620 65.8416 2.6530 0011220 332.7481 326.9903 2.13103506 16 COSMOS 2500 (755) 1 40001C 14032A 22182.99979167 .00000000 00000+0 00000+0 0 1829 2 40001 65.7811 2.5130 0006032 178.7643 339.6046 2.13102614 15 COSMOS 2501 (702K) 1 40315C 14075A 22182.99979167 .00000000 00000+0 00000+0 0 1824 2 40315 63.6883 240.6619 0019224 211.2728 115.1538 2.13101642 13 COSMOS 2514 (751) 1 41330C 16008A 22182.99979167 .00000000 00000+0 00000+0 0 1820 2 41330 65.5812 2.2013 0009218 198.0452 144.1770 2.13103048 14 COSMOS 2547 (705K) 1 46805C 20075A 22182.99979167 .00000000 00000+0 00000+0 0 1821 2 46805 64.6589 240.9765 0008416 244.5655 355.0778 2.13103252 11 COSMOS 2522 (752) 1 42939C 17055A 22182.99979167 .00000000 00000+0 00000+0 0 1829 2 42939 64.1480 241.3415 0009524 242.3039 219.4924 2.13102065 17 COSMOS 2527 (756) 1 43508C 18053A 22182.99979167 .00000000 00000+0 00000+0 0 1821 2 43508 64.9713 122.3522 0008579 238.9167 254.9844 2.13102584 17 COSMOS 2529 (757) 1 43687C 18086A 22182.99979167 .00000000 00000+0 00000+0 0 1825 2 43687 64.3629 241.6617 0011262 262.8140 154.5125 2.13102331 12 COSMOS 2534 (758) 1 44299C 19030A 22182.99979167 .00000000 00000+0 00000+0 0 1825 2 44299 64.4347 241.5479 0013557 281.5400 270.3554 2.13102103 11 COSMOS 2544 (759) 1 44850C 19088A 22182.99979167 .00000000 00000+0 00000+0 0 1821 2 44850 64.9566 122.2040 0013381 263.1011 274.2565 2.13102284 15 COSMOS 2545 (760) 1 45358C 20018A 22182.99979167 .00000000 00000+0 00000+0 0 1820 2 45358 64.9190 2.7974 0006846 238.0283 148.7911 2.13102954 14